Total_Precipitation_Accumulation
0.01 0.00 0.02 0.02 0.03 0.05 0.04 0.04 0.05 0.07 0.07 0.06 0.06 0.05 0.05 0.05 0.05 0.04 0.03 0.04 0.06 0.10 0.15 0.17 0.18 0.20 0.21 0.14 0.06 0.03 0.03 0.04 0.05 0.06 0.07 0.08 0.10 0.11 0.12 0.09 0.10 0.08 0.05
0.01 0.00 0.01 0.01 0.02 0.04 0.04 0.04 0.05 0.06 0.05 0.05 0.05 0.05 0.05 0.05 0.06 0.06 0.06 0.06 0.08 0.10 0.11 0.12 0.13 0.14 0.12 0.06 0.03 0.02 0.03 0.05 0.10 0.16 0.20 0.22 0.21 0.17 0.21 0.23 0.21 0.13 0.06
0.01 0.00 0.01 0.01 0.02 0.03 0.04 0.06 0.06 0.07 0.07 0.07 0.06 0.05 0.05 0.06 0.06 0.07 0.06 0.07 0.10 0.12 0.11 0.10 0.09 0.07 0.05 0.03 0.02 0.02 0.04 0.08 0.15 0.27 0.50 0.65 0.51 0.38 0.29 0.26 0.23 0.15 0.12
0.01 0.00 0.00 0.01 0.02 0.02 0.03 0.04 0.06 0.07 0.06 0.06 0.05 0.05 0.05 0.05 0.06 0.07 0.07 0.09 0.13 0.16 0.14 0.09 0.07 0.04 0.02 0.02 0.02 0.03 0.06 0.10 0.17 0.37 0.88 0.85 0.84 0.66 0.36 0.26 0.21 0.22 0.28
0.01 0.00 0.00 0.01 0.02 0.02 0.02 0.02 0.04 0.05 0.05 0.06 0.05 0.04 0.05 0.05 0.05 0.08 0.12 0.15 0.16 0.16 0.16 0.13 0.09 0.05 0.02 0.01 0.02 0.04 0.06 0.11 0.21 0.46 0.84 1.14 1.25 0.77 0.46 0.36 0.30 0.29 0.36
0.02 0.00 0.01 0.01 0.02 0.02 0.02 0.02 0.04 0.05 0.05 0.05 0.05 0.05 0.06 0.06 0.07 0.10 0.18 0.23 0.22 0.19 0.22 0.21 0.17 0.11 0.04 0.02 0.03 0.04 0.06 0.12 0.23 0.48 0.80 1.37 1.24 0.73 0.52 0.42 0.38 0.38 0.42
0.03 0.01 0.01 0.02 0.03 0.02 0.02 0.02 0.04 0.05 0.07 0.09 0.09 0.08 0.08 0.08 0.09 0.14 0.22 0.24 0.23 0.23 0.24 0.20 0.14 0.07 0.06 0.06 0.05 0.05 0.08 0.12 0.22 0.48 0.77 1.20 1.00 0.57 0.43 0.37 0.35 0.36 0.41
0.04 0.01 0.01 0.03 0.04 0.03 0.03 0.04 0.06 0.07 0.09 0.11 0.11 0.10 0.08 0.07 0.09 0.14 0.19 0.22 0.23 0.20 0.16 0.13 0.10 0.08 0.09 0.09 0.08 0.09 0.11 0.11 0.14 0.33 0.59 0.73 0.57 0.36 0.28 0.26 0.24 0.23 0.26
0.07 0.06 0.04 0.04 0.04 0.05 0.07 0.09 0.10 0.10 0.10 0.11 0.10 0.08 0.06 0.07 0.09 0.12 0.16 0.21 0.22 0.14 0.10 0.09 0.07 0.06 0.06 0.06 0.06 0.05 0.05 0.07 0.11 0.21 0.51 0.57 0.33 0.24 0.22 0.20 0.16 0.16 0.18
0.17 0.16 0.18 0.13 0.07 0.04 0.05 0.09 0.09 0.10 0.11 0.10 0.08 0.06 0.07 0.09 0.11 0.14 0.12 0.13 0.13 0.09 0.05 0.04 0.02 0.01 0.01 0.01 0.01 0.01 0.02 0.03 0.06 0.15 0.30 0.40 0.29 0.26 0.24 0.20 0.16 0.14 0.14
0.39 0.36 0.32 0.24 0.12 0.08 0.06 0.06 0.08 0.08 0.09 0.08 0.07 0.07 0.10 0.14 0.16 0.17 0.11 0.10 0.07 0.04 0.02 0.01 0.01 0.01 0.01 0.01 0.00 0.01 0.01 0.02 0.07 0.16 0.27 0.32 0.34 0.32 0.31 0.28 0.22 0.18 0.15
0.53 0.52 0.34 0.29 0.20 0.15 0.11 0.10 0.11 0.08 0.06 0.07 0.12 0.09 0.15 0.27 0.32 0.24 0.20 0.11 0.06 0.04 0.03 0.02 0.02 0.02 0.02 0.03 0.02 0.01 0.01 0.02 0.07 0.14 0.25 0.30 0.34 0.37 0.37 0.33 0.26 0.21 0.18
0.37 0.33 0.29 0.36 0.35 0.30 0.31 0.32 0.29 0.27 0.23 0.18 0.25 0.22 0.27 0.29 0.25 0.24 0.24 0.16 0.11 0.08 0.09 0.09 0.05 0.04 0.04 0.05 0.05 0.03 0.02 0.03 0.05 0.07 0.15 0.21 0.27 0.38 0.44 0.41 0.34 0.29 0.23
0.44 0.36 0.33 0.35 0.40 0.41 0.43 0.53 0.57 0.50 0.45 0.39 0.35 0.28 0.33 0.42 0.41 0.32 0.33 0.28 0.27 0.23 0.22 0.19 0.15 0.10 0.08 0.07 0.05 0.04 0.04 0.04 0.05 0.07 0.14 0.17 0.23 0.36 0.47 0.49 0.43 0.38 0.32
0.80 0.56 0.46 0.44 0.43 0.45 0.53 0.57 0.50 0.54 0.58 0.68 0.59 0.44 0.50 0.47 0.43 0.45 0.42 0.42 0.36 0.36 0.35 0.28 0.22 0.18 0.17 0.12 0.08 0.07 0.07 0.07 0.08 0.13 0.22 0.24 0.25 0.35 0.50 0.55 0.55 0.49 0.46
1.20 0.86 0.66 0.59 0.58 0.60 0.69 0.73 0.62 0.57 0.65 0.72 0.76 0.68 0.73 0.66 0.62 0.62 0.63 0.61 0.52 0.49 0.56 0.47 0.34 0.29 0.27 0.22 0.19 0.16 0.14 0.16 0.17 0.20 0.30 0.32 0.31 0.35 0.48 0.61 0.66 0.66 0.66
1.49 1.21 0.99 0.81 0.85 0.84 0.88 0.95 0.99 0.91 0.91 0.91 0.92 0.96 0.97 0.86 0.83 0.80 0.89 0.87 0.76 0.70 0.69 0.61 0.57 0.46 0.40 0.36 0.35 0.29 0.26 0.27 0.28 0.33 0.39 0.45 0.47 0.44 0.47 0.57 0.64 0.68 0.72
1.55 1.41 1.27 1.04 1.00 1.06 0.97 0.97 1.03 1.09 1.12 1.19 1.15 1.19 1.15 1.11 1.07 1.13 1.13 1.10 1.02 0.96 0.93 0.91 0.80 0.70 0.63 0.59 0.54 0.45 0.38 0.42 0.42 0.46 0.47 0.52 0.60 0.57 0.53 0.51 0.55 0.64 0.70
1.56 1.38 1.31 1.34 1.27 1.24 1.21 1.16 1.23 1.34 1.36 1.45 1.50 1.48 1.51 1.50 1.47 1.53 1.62 1.51 1.37 1.30 1.22 1.10 1.05 0.94 0.91 0.83 0.66 0.57 0.46 0.45 0.54 0.55 0.52 0.52 0.58 0.59 0.57 0.52 0.54 0.66 0.70
1.60 1.58 1.47 1.48 1.46 1.52 1.56 1.50 1.55 1.58 1.61 1.70 1.82 1.93 2.11 2.26 2.20 2.12 1.99 1.85 1.70 1.64 1.56 1.42 1.30 1.13 1.01 0.90 0.69 0.55 0.44 0.39 0.43 0.49 0.50 0.50 0.54 0.56 0.58 0.57 0.60 0.59 0.62
1.78 1.80 1.69 1.64 1.74 1.79 1.84 1.89 2.09 2.07 2.10 2.34 2.60 2.77 2.95 3.00 2.83 2.68 2.52 2.32 2.10 1.91 1.74 1.51 1.34 1.18 1.01 0.86 0.76 0.65 0.50 0.37 0.37 0.42 0.41 0.45 0.46 0.43 0.43 0.47 0.52 0.51 0.50
1.88 1.85 1.87 1.96 2.02 2.13 2.40 2.76 3.11 3.32 3.47 3.58 3.75 3.81 3.74 3.59 3.43 3.26 3.04 2.73 2.42 2.17 1.88 1.58 1.31 1.14 0.98 0.84 0.80 0.81 0.67 0.51 0.40 0.32 0.31 0.30 0.28 0.26 0.26 0.28 0.30 0.32 0.35
1.73 1.87 1.95 2.21 2.48 2.78 3.25 3.75 4.13 4.46 4.64 4.59 4.41 4.24 4.02 3.83 3.63 3.32 3.05 2.82 2.50 2.12 1.79 1.50 1.22 1.07 0.92 0.77 0.67 0.70 0.69 0.61 0.48 0.35 0.26 0.20 0.19 0.19 0.19 0.19 0.22 0.24 0.23
1.50 1.73 1.97 2.28 2.77 3.38 4.07 4.63 5.04 5.22 5.20 5.10 4.87 4.49 4.07 3.76 3.44 3.08 2.79 2.48 2.16 1.83 1.54 1.26 0.98 0.80 0.68 0.57 0.47 0.41 0.40 0.39 0.43 0.37 0.25 0.18 0.17 0.17 0.16 0.16 0.18 0.21 0.23
1.32 1.62 1.98 2.41 3.04 3.63 4.20 4.71 5.10 5.22 5.10 4.85 4.45 4.00 3.54 3.13 2.81 2.48 2.17 1.88 1.61 1.34 1.09 0.84 0.67 0.55 0.48 0.42 0.38 0.35 0.34 0.31 0.32 0.33 0.27 0.19 0.16 0.15 0.14 0.14 0.15 0.18 0.19
1.17 1.50 1.86 2.26 2.79 3.26 3.63 4.07 4.32 4.45 4.37 4.06 3.61 3.09 2.64 2.33 2.07 1.84 1.59 1.36 1.15 0.93 0.76 0.62 0.51 0.44 0.41 0.38 0.34 0.30 0.29 0.28 0.27 0.28 0.28 0.21 0.16 0.14 0.12 0.12 0.14 0.15 0.17